SWA120 KPHX-KSAN

Flight info

Callsign SWA120
Flight time 0h 58m
Altitude 32000
Route FYRBD1 MOHAK J2 HOGGZ LUCKI1
Aircraft B738/M-SDE2E3FGHIRWXY/LB1

Departure

Time 2026-04-26 18:15
Airport Phoenix Sky Harbor International Airport (KPHX)

Arrival

Time 2026-04-26 19:13
Airport San Diego International Airport (KSAN)
Time Latitude Longitude Altitude Speed Heading
2026-04-26 17:43 33.43338 -111.99897 1129 ft 0 kts 360°
2026-04-26 17:58 33.43334 -111.99897 1129 ft 0 kts
2026-04-26 17:59 33.43311 -111.99886 1129 ft 2 kts 303°
2026-04-26 17:59 33.43306 -111.99869 1128 ft 2 kts 267°
2026-04-26 17:59 33.43311 -111.99851 1128 ft 2 kts 232°
2026-04-26 17:59 33.43323 -111.99841 1128 ft 2 kts 197°
2026-04-26 18:00 33.43331 -111.99838 1128 ft 1 kts 177°
2026-04-26 18:00 33.43337 -111.99839 1128 ft 0 kts 180°
2026-04-26 18:00 33.43337 -111.99838 1128 ft 0 kts 180°
2026-04-26 18:10 33.43328 -111.99838 1128 ft 3 kts 179°
2026-04-26 18:11 33.43304 -111.99833 1128 ft 3 kts 161°
2026-04-26 18:11 33.43266 -111.99814 1128 ft 8 kts 152°
2026-04-26 18:11 33.43222 -111.99756 1128 ft 9 kts 113°
2026-04-26 18:11 33.43216 -111.99661 1128 ft 13 kts 91°
2026-04-26 18:12 33.43216 -111.99548 1128 ft 13 kts 88°
2026-04-26 18:12 33.43218 -111.99467 1128 ft 4 kts 88°
2026-04-26 18:12 33.43219 -111.99435 1129 ft 3 kts 88°
2026-04-26 18:12 33.43220 -111.99410 1130 ft 2 kts 88°
2026-04-26 18:13 33.43215 -111.99384 1130 ft 3 kts 116°
2026-04-26 18:13 33.43199 -111.99357 1130 ft 4 kts 126°
2026-04-26 18:13 33.43179 -111.99337 1131 ft 3 kts 153°
2026-04-26 18:13 33.43164 -111.99337 1131 ft 4 kts 193°
2026-04-26 18:14 33.43111 -111.99397 1130 ft 12 kts 250°
2026-04-26 18:14 33.43097 -111.99685 1128 ft 68 kts 269°
2026-04-26 18:14 33.43103 -112.00516 1130 ft 128 kts 270°
2026-04-26 18:14 33.43106 -112.01776 1179 ft 170 kts 269°
2026-04-26 18:15 33.43098 -112.03186 1800 ft 170 kts 265°
2026-04-26 18:15 33.43012 -112.04597 2481 ft 172 kts 263°
2026-04-26 18:15 33.42956 -112.06084 2900 ft 190 kts 268°
2026-04-26 18:15 33.42812 -112.07703 3442 ft 201 kts 254°
2026-04-26 18:16 33.42330 -112.09311 3926 ft 215 kts 248°
2026-04-26 18:16 33.41166 -112.12811 5081 ft 233 kts 249°
2026-04-26 18:16 33.40572 -112.14611 5749 ft 239 kts 244°
2026-04-26 18:17 33.39646 -112.16232 6527 ft 242 kts 224°
2026-04-26 18:17 33.38202 -112.17287 7323 ft 249 kts 203°
2026-04-26 18:17 33.36482 -112.17779 7937 ft 266 kts 189°
2026-04-26 18:17 33.34596 -112.17599 8813 ft 275 kts 171°
2026-04-26 18:18 33.32762 -112.16953 9687 ft 280 kts 167°
2026-04-26 18:18 33.30911 -112.16225 10503 ft 286 kts 167°
2026-04-26 18:18 33.28949 -112.15483 11043 ft 303 kts 168°
2026-04-26 18:18 33.26865 -112.15000 11603 ft 309 kts 186°
2026-04-26 18:19 33.24812 -112.15524 12498 ft 301 kts 208°
2026-04-26 18:19 33.23072 -112.16822 13467 ft 297 kts 222°
2026-04-26 18:19 33.21598 -112.18536 14414 ft 297 kts 232°
2026-04-26 18:19 33.20584 -112.20627 15406 ft 295 kts 250°
2026-04-26 18:20 33.20261 -112.23039 16357 ft 299 kts 265°
2026-04-26 18:20 33.20291 -112.25485 17230 ft 302 kts 268°
2026-04-26 18:20 33.20163 -112.27961 18112 ft 300 kts 256°
2026-04-26 18:20 33.19745 -112.29527 18654 ft 301 kts 247°
2026-04-26 18:21 33.18316 -112.32400 19798 ft 303 kts 237°
2026-04-26 18:21 33.17058 -112.34403 20621 ft 305 kts 235°
2026-04-26 18:21 33.15762 -112.36384 21430 ft 306 kts 235°
2026-04-26 18:21 33.14460 -112.38367 22236 ft 306 kts 236°
2026-04-26 18:22 33.13154 -112.40366 22995 ft 307 kts 235°
2026-04-26 18:22 33.11845 -112.42379 23687 ft 309 kts 236°
2026-04-26 18:22 33.10531 -112.44407 24293 ft 312 kts 236°
2026-04-26 18:22 33.09212 -112.46445 25025 ft 312 kts 236°
2026-04-26 18:23 33.07893 -112.48483 25588 ft 316 kts 236°
2026-04-26 18:23 33.06558 -112.50551 26225 ft 317 kts 236°
2026-04-26 18:23 33.05193 -112.52660 26806 ft 320 kts 235°
2026-04-26 18:23 33.03847 -112.54737 27388 ft 321 kts 236°
2026-04-26 18:24 33.02490 -112.56828 27922 ft 323 kts 236°
2026-04-26 18:24 33.01094 -112.58979 28489 ft 325 kts 235°
2026-04-26 18:24 32.99722 -112.61095 29002 ft 327 kts 236°
2026-04-26 18:24 32.98334 -112.63238 29402 ft 331 kts 236°
2026-04-26 18:25 32.96980 -112.65443 29997 ft 330 kts 238°
2026-04-26 18:25 32.95842 -112.67813 30424 ft 333 kts 245°
2026-04-26 18:25 32.95017 -112.70361 31118 ft 330 kts 251°
2026-04-26 18:25 32.94514 -112.73034 31728 ft 329 kts 257°
2026-04-26 18:26 32.94215 -112.75754 31909 ft 335 kts 259°
2026-04-26 18:26 32.93957 -112.78494 31931 ft 334 kts 259°
2026-04-26 18:26 32.93374 -112.83899 31933 ft 326 kts 258°
2026-04-26 18:27 32.92700 -112.89228 31937 ft 328 kts 257°
2026-04-26 18:27 32.91975 -112.94608 31937 ft 329 kts 256°
2026-04-26 18:28 32.91244 -112.99968 31932 ft 328 kts 256°
2026-04-26 18:28 32.90499 -113.05293 31931 ft 328 kts 257°
2026-04-26 18:29 32.89758 -113.10641 31928 ft 328 kts 257°
2026-04-26 18:29 32.89048 -113.15958 31927 ft 327 kts 257°
2026-04-26 18:30 32.88318 -113.21288 31920 ft 328 kts 257°
2026-04-26 18:30 32.87575 -113.26637 31915 ft 328 kts 257°
2026-04-26 18:31 32.86827 -113.31986 31913 ft 327 kts 257°
2026-04-26 18:31 32.86091 -113.37279 31906 ft 325 kts 257°
2026-04-26 18:32 32.85344 -113.42612 31906 ft 326 kts 257°
2026-04-26 18:32 32.84602 -113.47901 31908 ft 327 kts 257°
2026-04-26 18:33 32.83855 -113.53218 31904 ft 325 kts 257°
2026-04-26 18:33 32.83099 -113.58559 31906 ft 326 kts 257°
2026-04-26 18:34 32.82352 -113.63855 31907 ft 326 kts 257°
2026-04-26 18:34 32.81606 -113.69133 31910 ft 325 kts 257°
2026-04-26 18:35 32.80850 -113.74441 31922 ft 326 kts 256°
2026-04-26 18:35 32.80097 -113.79718 31924 ft 324 kts 257°
2026-04-26 18:36 32.79345 -113.84997 31923 ft 325 kts 257°
2026-04-26 18:36 32.78580 -113.90276 31921 ft 325 kts 257°
2026-04-26 18:37 32.77816 -113.95574 31925 ft 325 kts 257°
2026-04-26 18:37 32.77451 -114.00887 31920 ft 327 kts 263°
2026-04-26 18:38 32.77449 -114.06319 31924 ft 329 kts 264°
2026-04-26 18:38 32.77602 -114.11764 31922 ft 331 kts 267°
2026-04-26 18:39 32.77883 -114.17206 31926 ft 331 kts 267°
2026-04-26 18:39 32.78120 -114.22643 31933 ft 330 kts 266°
2026-04-26 18:40 32.78337 -114.28080 31933 ft 331 kts 266°
2026-04-26 18:40 32.78550 -114.33527 31931 ft 328 kts 266°
2026-04-26 18:41 32.78947 -114.38964 31933 ft 336 kts 273°
2026-04-26 18:41 32.80235 -114.44407 31937 ft 344 kts 279°
2026-04-26 18:42 32.81776 -114.49764 31936 ft 345 kts 279°
2026-04-26 18:42 32.83311 -114.55228 31930 ft 347 kts 279°
2026-04-26 18:43 32.84809 -114.60598 31935 ft 340 kts 279°
2026-04-26 18:43 32.86274 -114.65951 31940 ft 346 kts 278°
2026-04-26 18:44 32.87559 -114.71374 31933 ft 335 kts 273°
2026-04-26 18:44 32.87892 -114.76813 31936 ft 327 kts 263°
2026-04-26 18:45 32.87758 -114.82209 31937 ft 329 kts 263°
2026-04-26 18:45 32.87609 -114.87632 31936 ft 328 kts 263°
2026-04-26 18:46 32.87484 -114.93066 31936 ft 329 kts 263°
2026-04-26 18:46 32.87378 -114.98473 31940 ft 329 kts 263°
2026-04-26 18:47 32.87241 -115.03873 31939 ft 328 kts 263°
2026-04-26 18:47 32.87108 -115.09290 31938 ft 327 kts 263°
2026-04-26 18:48 32.86974 -115.14725 31936 ft 330 kts 263°
2026-04-26 18:48 32.86842 -115.20126 31630 ft 322 kts 263°
2026-04-26 18:49 32.86778 -115.22732 31200 ft 317 kts 263°
2026-04-26 18:49 32.86706 -115.25349 30595 ft 316 kts 264°
2026-04-26 18:49 32.86638 -115.27914 30117 ft 311 kts 263°
2026-04-26 18:49 32.86577 -115.30485 29645 ft 307 kts 264°
2026-04-26 18:50 32.86519 -115.32983 29148 ft 304 kts 263°
2026-04-26 18:50 32.86381 -115.35471 28669 ft 299 kts 259°
2026-04-26 18:50 32.86082 -115.37865 28159 ft 296 kts 258°
2026-04-26 18:50 32.85703 -115.40272 27650 ft 293 kts 257°
2026-04-26 18:51 32.85321 -115.42634 27159 ft 291 kts 257°
2026-04-26 18:51 32.84969 -115.44983 26678 ft 295 kts 258°
2026-04-26 18:51 32.84624 -115.47366 26185 ft 309 kts 258°
2026-04-26 18:51 32.84257 -115.49901 25949 ft 310 kts 258°
2026-04-26 18:52 32.83864 -115.52417 25941 ft 311 kts 258°
2026-04-26 18:52 32.83445 -115.54929 25936 ft 314 kts 257°
2026-04-26 18:52 32.83009 -115.57490 25938 ft 314 kts 257°
2026-04-26 18:52 32.82599 -115.60005 25936 ft 313 kts 257°
2026-04-26 18:53 32.82190 -115.62544 25939 ft 312 kts 258°
2026-04-26 18:53 32.81775 -115.65083 25942 ft 313 kts 257°
2026-04-26 18:53 32.81355 -115.67623 25934 ft 314 kts 257°
2026-04-26 18:53 32.80930 -115.70165 25713 ft 315 kts 257°
2026-04-26 18:54 32.80507 -115.72700 25352 ft 309 kts 257°
2026-04-26 18:54 32.80096 -115.75185 24911 ft 306 kts 257°
2026-04-26 18:54 32.79691 -115.77651 24393 ft 304 kts 258°
2026-04-26 18:54 32.79294 -115.80090 23897 ft 302 kts 258°
2026-04-26 18:55 32.78897 -115.82538 23386 ft 301 kts 258°
2026-04-26 18:55 32.78509 -115.84954 22974 ft 298 kts 259°
2026-04-26 18:55 32.78244 -115.87395 22921 ft 296 kts 263°
2026-04-26 18:55 32.78083 -115.89801 22563 ft 294 kts 263°
2026-04-26 18:56 32.77934 -115.92202 22074 ft 292 kts 263°
2026-04-26 18:56 32.77772 -115.94603 21598 ft 291 kts 263°
2026-04-26 18:56 32.77601 -115.97002 21115 ft 291 kts 263°
2026-04-26 18:56 32.77426 -115.99388 20630 ft 300 kts 263°
2026-04-26 18:57 32.77234 -116.01909 20116 ft 309 kts 263°
2026-04-26 18:57 32.77101 -116.03597 19770 ft 310 kts 263°
2026-04-26 18:57 32.76843 -116.06965 19107 ft 306 kts 264°
2026-04-26 18:57 32.76658 -116.09448 18622 ft 305 kts 264°
2026-04-26 18:58 32.76475 -116.11955 18117 ft 303 kts 264°
2026-04-26 18:58 32.76297 -116.14417 17631 ft 301 kts 264°
2026-04-26 18:58 32.76112 -116.16892 17175 ft 298 kts 264°
2026-04-26 18:58 32.75922 -116.19337 16594 ft 300 kts 264°
2026-04-26 18:59 32.75729 -116.21790 16083 ft 299 kts 264°
2026-04-26 18:59 32.75540 -116.24206 15589 ft 297 kts 264°
2026-04-26 18:59 32.75351 -116.26633 15095 ft 296 kts 264°
2026-04-26 18:59 32.75162 -116.29063 14606 ft 294 kts 264°
2026-04-26 19:00 32.74978 -116.31465 14124 ft 292 kts 264°
2026-04-26 19:00 32.74794 -116.33870 13646 ft 290 kts 265°
2026-04-26 19:00 32.74610 -116.36231 13178 ft 288 kts 265°
2026-04-26 19:00 32.74428 -116.38560 12723 ft 286 kts 265°
2026-04-26 19:01 32.74244 -116.40920 12259 ft 285 kts 265°
2026-04-26 19:01 32.74062 -116.43259 11788 ft 283 kts 266°
2026-04-26 19:01 32.73882 -116.45548 11332 ft 282 kts 266°
2026-04-26 19:01 32.73703 -116.47853 10993 ft 275 kts 266°
2026-04-26 19:02 32.73528 -116.50073 10912 ft 265 kts 266°
2026-04-26 19:02 32.73336 -116.52216 10715 ft 258 kts 265°
2026-04-26 19:02 32.73129 -116.54343 10201 ft 262 kts 265°
2026-04-26 19:02 32.72989 -116.55748 9938 ft 261 kts 265°
2026-04-26 19:03 32.72713 -116.58524 9692 ft 248 kts 266°
2026-04-26 19:03 32.72517 -116.60541 9308 ft 248 kts 266°
2026-04-26 19:03 32.72322 -116.62573 8967 ft 245 kts 265°
2026-04-26 19:03 32.72130 -116.64551 8638 ft 243 kts 266°
2026-04-26 19:04 32.71945 -116.66535 8315 ft 241 kts 265°
2026-04-26 19:04 32.71789 -116.68519 7979 ft 238 kts 266°
2026-04-26 19:04 32.71651 -116.70464 7675 ft 235 kts 266°
2026-04-26 19:04 32.71512 -116.72380 7367 ft 234 kts 266°
2026-04-26 19:05 32.71220 -116.76203 6726 ft 232 kts 266°
2026-04-26 19:05 32.71070 -116.78100 6421 ft 231 kts 265°
2026-04-26 19:05 32.70923 -116.79968 6115 ft 229 kts 265°
2026-04-26 19:06 32.70736 -116.81844 5961 ft 227 kts 260°
2026-04-26 19:06 32.70302 -116.83630 5745 ft 226 kts 252°
2026-04-26 19:06 32.69727 -116.85349 5543 ft 217 kts 250°
2026-04-26 19:06 32.69197 -116.86903 5391 ft 194 kts 251°
2026-04-26 19:07 32.68737 -116.88342 5165 ft 192 kts 253°
2026-04-26 19:07 32.68245 -116.90039 4793 ft 236 kts 253°
2026-04-26 19:07 32.67708 -116.91891 4372 ft 235 kts 253°
2026-04-26 19:07 32.67337 -116.93685 4066 ft 212 kts 266°
2026-04-26 19:08 32.67511 -116.95305 3852 ft 190 kts 288°
2026-04-26 19:08 32.67934 -116.96728 3645 ft 174 kts 288°
2026-04-26 19:08 32.68290 -116.98045 3486 ft 167 kts 285°
2026-04-26 19:08 32.68615 -116.99364 3284 ft 164 kts 286°
2026-04-26 19:09 32.68925 -117.00616 3114 ft 153 kts 286°
2026-04-26 19:09 32.69217 -117.01806 2940 ft 145 kts 286°
2026-04-26 19:09 32.69489 -117.02934 2801 ft 141 kts 286°
2026-04-26 19:09 32.69765 -117.04069 2686 ft 142 kts 286°
2026-04-26 19:10 32.70042 -117.05204 2485 ft 145 kts 286°
2026-04-26 19:10 32.70316 -117.06320 2318 ft 136 kts 286°
2026-04-26 19:10 32.70581 -117.07420 2115 ft 138 kts 286°
2026-04-26 19:10 32.70847 -117.08514 1956 ft 140 kts 285°
2026-04-26 19:11 32.71126 -117.09654 1727 ft 144 kts 285°
2026-04-26 19:11 32.71399 -117.10765 1466 ft 137 kts 286°
2026-04-26 19:11 32.71659 -117.11842 1268 ft 139 kts 285°
2026-04-26 19:11 32.71926 -117.12953 1044 ft 140 kts 285°
2026-04-26 19:12 32.72200 -117.14095 992 ft 150 kts 285°
2026-04-26 19:12 32.72459 -117.15297 741 ft 148 kts 283°
2026-04-26 19:12 32.72724 -117.16452 463 ft 141 kts 287°
2026-04-26 19:12 32.73002 -117.17506 179 ft 133 kts 286°
2026-04-26 19:13 32.73247 -117.18504 24 ft 113 kts 284°
2026-04-26 19:13 32.73401 -117.19166 24 ft 59 kts 285°
2026-04-26 19:13 32.73443 -117.19434 24 ft 15 kts 255°
2026-04-26 19:13 32.73430 -117.19477 24 ft 0 kts 247°
2026-04-26 19:14 32.73429 -117.19479 24 ft 1 kts 247°
2026-04-26 19:14 32.73428 -117.19483 24 ft 1 kts 247°
2026-04-26 19:14 32.73408 -117.19509 24 ft 6 kts 200°
2026-04-26 19:14 32.73377 -117.19507 24 ft 6 kts 173°
2026-04-26 19:15 32.73328 -117.19498 24 ft 6 kts 171°
2026-04-26 19:15 32.73259 -117.19484 24 ft 9 kts 172°
2026-04-26 19:15 32.73221 -117.19505 24 ft 1 kts 257°
2026-04-26 19:15 32.73233 -117.19524 24 ft 4 kts 314°
2026-04-26 19:16 32.73246 -117.19540 24 ft 4 kts 314°
2026-04-26 19:16 32.73255 -117.19550 24 ft 1 kts 315°
2026-04-26 19:16 32.73256 -117.19553 24 ft 0 kts 315°